User: anonymous   Login
Location: Franzen
(48.6167°N, 15.3833°E)
Time: 13:09:55
(UTC+00:00)
Language:

Cosmos 482 Debris - Orbit

View from above orbital plane
View from above orbital plane
View from above satellite
View from above satellite

Ground track
Ground track

The orbit data is extracted from the following two-line orbital elements,

1 06073U 72023E   21173.46120543  .00012222  55236-5  51522-4 0  9993
2 06073  52.0396 212.7129 1271108 263.0121  82.4927 13.26970080550976
Epoch (UTC): 22 June 2021 11:04:08
Eccentricity: 0.1271108
inclination: 52.0396°
perigee height: 200 km
apogee height: 2116 km
right ascension of ascending node: 212.7129°
argument of perigee: 263.0121°
revolutions per day: 13.26970080
mean anomaly at epoch: 82.4927°
orbit number at epoch: 55097

The dashed part of the orbit path shows where the satellite is in the earth's shadow,  

DLR